Location: Dana
(41.8364°N, 106.7042°W)
Time: 03:22:59
(UTC+00:00)

ISS - Visible Passes

Search period start: 15 April 2026 00:00
Search period end: 25 April 2026 00:00
Orbit: 415 x 424 km, 51.6° (Epoch: 14 April)

Date Brightness Start Highest point End Pass type
(mag) Time Alt. Az. Time Alt. Az. Time Alt. Az.
15 Apr -1.2 11:54:52 10° S 11:57:12 18° SE 11:59:32 10° E visible
16 Apr -0.8 11:09:28 10° SE 11:10:02 10° SE 11:10:35 10° ESE visible
18 Apr -2.2 11:09:19 14° SSW 11:11:40 29° SE 11:14:38 10° ENE visible
19 Apr -1.6 10:23:55 17° SE 10:24:23 18° SE 10:26:45 10° E visible
20 Apr -3.8 11:11:23 22° SW 11:13:27 88° SSE 11:16:51 10° NE visible
21 Apr -3.4 10:25:49 50° SSE 10:26:03 51° SE 10:29:20 10° ENE visible
22 Apr -1.5 09:40:10 21° E 09:40:10 21° E 09:41:40 10° ENE visible
22 Apr -2.8 11:13:07 16° W 11:15:25 37° NNW 11:18:37 10° NE visible
23 Apr -3.5 10:27:23 50° WNW 10:27:52 57° NNW 10:31:13 10° NE visible
24 Apr -2.2 09:41:37 36° NE 09:41:37 36° NE 09:43:45 10° NE visible
24 Apr -1.8 11:14:51 10° WNW 11:17:33 22° NNW 11:20:14 10° NE visible
